CW8353 Weather Reports


Display with metric or nautical units.
time (UTC)temp
F
wind
direction
speed
MPH
gust
MPH
rain 1hr
in
rain 24hr
in
rain mn
in
humidity
%
barometer
mb
20210618170940 74 26 0.0 1.0 0.00 0.00 0.00 33 1010.1
20210618165923 73 26 0.0 0.0 0.00 0.00 0.00 35 1010.2
20210618164932 72 26 0.0 1.0 0.00 0.00 0.00 38 1010.2
20210618163939 71 26 0.0 1.0 0.00 0.00 0.00 42 1010.4
20210618162938 69 26 0.0 1.0 0.00 0.00 0.00 43 1010.5
20210618161923 69 50 0.0 1.0 0.00 0.00 0.00 44 1010.5
20210618160924 68 50 0.0 2.0 0.00 0.00 0.00 44 1010.7
20210618155926 67 50 0.0 0.0 0.00 0.00 0.00 45 1010.7
20210618154926 66 50 0.0 0.0 0.00 0.00 0.00 46 1010.9
20210618153929 66 50 0.0 0.0 0.00 0.00 0.00 53 1010.9
20210618152929 65 50 0.0 0.0 0.00 0.00 0.00 56 1011.0
20210618151929 64 49 0.0 1.0 0.00 0.00 0.00 55 1011.0
20210618150929 63 50 1.0 3.0 0.00 0.00 0.00 55 1011.0
20210618145930 62 50 0.0 1.0 0.00 0.00 0.00 56 1011.1
20210618144935 60 50 0.0 2.0 0.00 0.00 0.00 59 1011.2
20210618143936 59 50 0.0 0.0 0.00 0.00 0.00 62 1011.1
20210618142938 58 50 0.0 0.0 0.00 0.00 0.00 66 1011.2
20210618141927 57 50 0.0 0.0 0.00 0.00 0.00 67 1011.2
20210618140931 57 50 0.0 0.0 0.00 0.00 0.00 67 1011.2
20210618135933 56 50 0.0 0.0 0.00 0.00 0.00 67 1011.2
20210618134921 56 50 0.0 0.0 0.00 0.00 0.00 67 1011.2
20210618133927 56 50 0.0 0.0 0.00 0.00 0.00 67 1011.2
20210618132934 56 50 0.0 0.0 0.00 0.00 0.00 67 1011.1
20210618131932 56 50 0.0 0.0 0.00 0.00 0.00 67 1011.0
20210618130921 56 50 0.0 0.0 0.00 0.00 0.00 66 1011.0
20210618125922 56 50 0.0 0.0 0.00 0.00 0.00 66 1011.1
20210618124931 56 50 0.0 0.0 0.00 0.00 0.00 66 1011.0
20210618123931 57 50 0.0 0.0 0.00 0.00 0.00 64 1010.9
20210618122933 57 50 0.0 0.0 0.00 0.00 0.00 64 1010.8
20210618121937 57 50 0.0 0.0 0.00 0.00 0.00 64 1010.8
20210618120934 57 50 0.0 0.0 0.00 0.00 0.00 63 1010.7
20210618115922 58 50 0.0 0.0 0.00 0.00 0.00 62 1010.6
20210618114927 58 50 0.0 0.0 0.00 0.00 0.00 63 1010.6
20210618113930 58 50 0.0 0.0 0.00 0.00 0.00 62 1010.6
20210618112926 58 50 0.0 0.0 0.00 0.00 0.00 61 1010.6
20210618111936 59 50 0.0 0.0 0.00 0.00 0.00 61 1010.6
20210618110939 59 50 0.0 0.0 0.00 0.00 0.00 61 1010.6
20210618105924 59 50 0.0 0.0 0.00 0.00 0.00 59 1010.6
20210618104927 60 50 0.0 0.0 0.00 0.00 0.00 60 1010.6
20210618103937 60 50 0.0 0.0 0.00 0.00 0.00 60 1010.6
20210618102935 60 50 0.0 0.0 0.00 0.00 0.00 58 1010.6
20210618101936 61 50 0.0 0.0 0.00 0.00 0.00 57 1010.6
20210618100936 61 50 0.0 0.0 0.00 0.00 0.00 57 1010.6
20210618095923 61 50 0.0 0.0 0.00 0.00 0.00 55 1010.6
20210618094941 61 50 0.0 0.0 0.00 0.00 0.00 55 1010.6
20210618093919 62 50 0.0 0.0 0.00 0.00 0.00 54 1010.6
20210618092925 62 50 0.0 0.0 0.00 0.00 0.00 53 1010.6
20210618091935 62 50 0.0 0.0 0.00 0.00 0.00 53 1010.6
20210618090916 63 49 0.0 0.0 0.00 0.00 0.00 52 1010.7
20210618085922 63 50 0.0 0.0 0.00 0.00 0.00 51 1010.8
20210618084919 63 49 0.0 0.0 0.00 0.00 0.00 50 1010.8
20210618083925 64 50 0.0 0.0 0.00 0.00 0.00 50 1010.8
20210618082925 64 50 0.0 0.0 0.00 0.00 0.00 49 1010.7
20210618081925 65 50 0.0 0.0 0.00 0.00 0.00 48 1010.7
20210618080925 65 50 0.0 0.0 0.00 0.00 0.00 47 1010.7
20210618075927 66 50 0.0 0.0 0.00 0.00 0.00 46 1010.7
20210618074935 66 50 0.0 0.0 0.00 0.00 0.00 45 1010.7
20210618073919 66 49 0.0 0.0 0.00 0.00 0.00 45 1010.8
20210618072924 67 50 0.0 0.0 0.00 0.00 0.00 44 1010.7
20210618071927 67 50 0.0 0.0 0.00 0.00 0.00 43 1010.7
20210618070929 68 50 0.0 0.0 0.00 0.00 0.00 42 1010.6
20210618065927 68 50 0.0 0.0 0.00 0.00 0.00 42 1010.5
20210618064926 69 49 0.0 0.0 0.00 0.00 0.00 41 1010.5
20210618063934 69 50 0.0 0.0 0.00 0.00 0.00 40 1010.4
20210618062931 70 49 0.0 0.0 0.00 0.00 0.00 40 1010.4
20210618061928 70 49 0.0 0.0 0.00 0.00 0.00 39 1010.2
20210618060936 70 50 0.0 0.0 0.00 0.00 0.00 38 1010.1
20210618055931 71 49 0.0 0.0 0.00 0.00 0.00 38 1010.1
20210618054938 71 49 0.0 0.0 0.00 0.00 0.00 38 1010.0
20210618053918 72 50 0.0 0.0 0.00 0.00 0.00 37 1009.9
20210618052923 73 49 0.0 0.0 0.00 0.00 0.00 36 1009.9
20210618051939 73 50 0.0 1.0 0.00 0.00 0.00 36 1009.6
20210618050932 74 49 0.0 0.0 0.00 0.00 0.00 36 1009.5
20210618045932 75 50 0.0 0.0 0.00 0.00 0.00 35 1009.4
20210618044929 76 49 0.0 0.0 0.00 0.00 0.00 34 1009.1
20210618043924 77 49 0.0 0.0 0.00 0.00 0.00 33 1009.0
20210618042920 78 50 0.0 0.0 0.00 0.00 0.00 30 1008.9
20210618041934 79 49 0.0 0.0 0.00 0.00 0.00 31 1008.7
20210618040932 80 50 0.0 0.0 0.00 0.00 0.00 28 1008.5
20210618035923 81 49 0.0 0.0 0.00 0.00 0.00 28 1008.4
20210618034933 82 50 0.0 0.0 0.00 0.00 0.00 26 1008.4
20210618033932 83 50 0.0 0.0 0.00 0.00 0.00 25 1008.3
20210618032931 85 50 0.0 1.0 0.00 0.00 0.00 24 1008.1
20210618031917 86 50 0.0 0.0 0.00 0.00 0.00 22 1008.0
20210618030919 88 50 0.0 0.0 0.00 0.00 0.00 20 1007.9
20210618025917 90 50 0.0 0.0 0.00 0.00 0.00 18 1007.8
20210618024923 91 49 0.0 7.0 0.00 0.00 0.00 16 1007.8
20210618023930 91 15 0.0 3.0 0.00 0.00 0.00 16 1007.8
20210618022922 92 14 0.0 2.0 0.00 0.00 0.00 16 1007.7
20210618021924 93 13 0.0 2.0 0.00 0.00 0.00 14 1007.7
20210618020942 93 9 0.0 3.0 0.00 0.00 0.00 15 1007.7
20210618015933 94 48 1.0 3.0 0.00 0.00 0.00 14 1007.7
20210618014938 94 49 0.0 2.0 0.00 0.00 0.00 14 1007.6
20210618013932 95 49 1.0 4.0 0.00 0.00 0.00 13 1007.5
20210618012930 95 51 0.0 2.0 0.00 0.00 0.00 13 1007.6
20210618011932 95 51 0.0 3.0 0.00 0.00 0.00 13 1007.5
20210618010922 95 51 0.0 3.0 0.00 0.00 0.00 13 1007.6
20210618005924 95 51 0.0 1.0 0.00 0.00 0.00 14 1007.6
20210618004921 95 51 0.0 0.0 0.00 0.00 0.00 13 1007.7
20210618003939 95 51 0.0 0.0 0.00 0.00 0.00 13 1007.8
20210618002930 96 51 0.0 1.0 0.00 0.00 0.00 13 1007.9
20210618001931 96 51 0.0 1.0 0.00 0.00 0.00 12 1007.9
20210618000932 95 51 0.0 2.0 0.00 0.00 0.00 12 1008.0
20210617235920 96 51 0.0 0.0 0.00 0.00 0.00 13 1008.1
20210617234921 96 51 0.0 3.0 0.00 0.00 0.00 12 1008.2
20210617233940 96 51 0.0 1.0 0.00 0.00 0.00 11 1008.2
20210617232922 96 51 0.0 1.0 0.00 0.00 0.00 12 1008.4
20210617231928 96 51 0.0 3.0 0.00 0.00 0.00 11 1008.5
20210617230931 96 51 1.0 4.0 0.00 0.00 0.00 11 1008.5
20210617225929 96 51 0.0 1.0 0.00 0.00 0.00 12 1008.7
20210617224938 96 51 0.0 0.0 0.00 0.00 0.00 11 1008.8
20210617223923 96 51 0.0 1.0 0.00 0.00 0.00 12 1008.8
20210617222922 96 51 0.0 2.0 0.00 0.00 0.00 13 1008.9
20210617221930 96 51 0.0 1.0 0.00 0.00 0.00 11 1008.9
20210617220934 96 51 0.0 1.0 0.00 0.00 0.00 11 1009.1
20210617215935 96 51 0.0 1.0 0.00 0.00 0.00 11 1009.2
20210617214936 96 51 0.0 1.0 0.00 0.00 0.00 13 1009.4
20210617213915 96 47 0.0 1.0 0.00 0.00 0.00 12 1009.5
20210617212935 96 42 0.0 1.0 0.00 0.00 0.00 13 1009.6
20210617211924 96 42 0.0 1.0 0.00 0.00 0.00 13 1009.8
20210617210924 96 42 0.0 1.0 0.00 0.00 0.00 13 1009.9
20210617205922 95 32 0.0 4.0 0.00 0.00 0.00 13 1010.0
20210617204926 94 32 0.0 1.0 0.00 0.00 0.00 13 1010.2
20210617203930 95 26 0.0 1.0 0.00 0.00 0.00 13 1010.3
20210617202935 95 28 0.0 1.0 0.00 0.00 0.00 14 1010.5
20210617201935 95 28 0.0 1.0 0.00 0.00 0.00 13 1010.7
20210617200918 94 28 0.0 1.0 0.00 0.00 0.00 14 1010.8
20210617195923 93 28 0.0 1.0 0.00 0.00 0.00 17 1010.9
20210617194925 92 28 0.0 1.0 0.00 0.00 0.00 18 1011.1
20210617193939 91 28 0.0 0.0 0.00 0.00 0.00 21 1011.2
20210617192916 90 28 0.0 1.0 0.00 0.00 0.00 22 1011.4
20210617191918 89 25 0.0 0.0 0.00 0.00 0.00 22 1011.4
20210617190924 87 25 0.0 0.0 0.00 0.00 0.00 25 1011.6
20210617185929 86 25 0.0 1.0 0.00 0.00 0.00 25 1011.6
20210617184928 85 25 0.0 0.0 0.00 0.00 0.00 26 1011.9
20210617183927 84 25 0.0 1.0 0.00 0.00 0.00 27 1012.0
20210617182925 82 25 0.0 0.0 0.00 0.00 0.00 28 1012.1
20210617181930 80 25 0.0 0.0 0.00 0.00 0.00 30 1012.3
20210617180929 79 25 0.0 1.0 0.00 0.00 0.00 32 1012.4
20210617175928 77 25 0.0 0.0 0.00 0.00 0.00 35 1012.5
20210617174922 75 25 0.0 0.0 0.00 0.00 0.00 37 1012.6
20210617173931 74 25 0.0 2.0 0.00 0.00 0.00 36 1012.9
20210617172924 73 25 0.0 1.0 0.00 0.00 0.00 36 1013.0
20210617171928 71 25 0.0 3.0 0.00 0.00 0.00 39 1013.1